Everett, WA

8:21 PM PDT on July 26, 2017 (GMT -0700)
Snohomish County

Weather History for KPAE - February, 2012

Change the Weather History Date:

Friday, February 17, 2012

  Actual Average Record
Temperature  
Mean Temperature 44 °F -  
Max Temperature 48 °F 48 °F 60 °F (2016)
Min Temperature 41 °F 36 °F 17 °F (1956)
Degree Days  
Heating Degree Days 20    
Moisture  
Dew Point 40 °F    
Average Humidity 85    
Maximum Humidity 93    
Minimum Humidity 77    
Precipitation  
Precipitation 0.40 in - - ()
Sea Level Pressure  
Sea Level Pressure 30.04 in    
Wind  
Wind Speed 9 mph (SSE)    
Max Wind Speed 23 mph    
Max Gust Speed 33 mph    
Visibility 7 miles    
Events Fog , Rain    
Averages and records for this station are not official NWS values.
T = Trace of Precipitation, MM = Missing Value Source: NWS Daily Summary

Daily Weather History Graph

Daily Weather History Graph

Search for Another Location

Airport or City:

Trip Planner

Search our weather history database for the weather conditions in past years. The results will help you decide how hot, cold, wet, or windy it might be!

Date:

Astronomy

Feb. 17, 2012 Rise Set
Actual Time 7:12 AM PST 5:34 PM PST
Civil Twilight 6:40 AM PST 6:06 PM PST
Nautical Twilight 6:04 AM PST 6:42 PM PST
Astronomical Twilight 5:28 AM PST 7:18 PM PST
Moon 4:22 AM PST (2/17) 1:19 PM PST (2/17)
Length of Visible Light 11h 25m
Length of Day
10h 21m
Waning Crescent, 18% of the Moon is Illuminated
Feb 17
Waning Crescent
Feb 21
New
Feb 29
First Quarter
Mar 8
Full
Mar 14
Last Quarter

Hourly Weather History & Observations

Time (PST) Temp. Windchill Dew Point Humidity Pressure Visibility Wind Dir Wind Speed Gust Speed Precip Events Conditions
12:13 AM 44.6 °F 41.4 °F 41.0 °F 87% 30.25 in 3.0 mi South 5.8 mph - N/A   Overcast
12:21 AM 44.6 °F 43.1 °F 41.0 °F 87% 30.26 in 3.0 mi South 3.5 mph - N/A   Overcast
12:31 AM 44.6 °F 41.4 °F 41.0 °F 87% 30.25 in 2.5 mi SSE 5.8 mph - N/A   Overcast
12:50 AM 44.6 °F 41.4 °F 41.0 °F 87% 30.24 in 3.0 mi Variable 5.8 mph - N/A   Overcast
12:53 AM 44.1 °F 40.1 °F 41.0 °F 89% 30.25 in 4.0 mi SSE 6.9 mph - N/A   Overcast
1:53 AM 44.6 °F 41.4 °F 42.8 °F 93% 30.25 in 5.0 mi SSE 5.8 mph - N/A   Overcast
2:53 AM 44.1 °F 39.5 °F 41.0 °F 89% 30.25 in 10.0 mi SSE 8.1 mph - N/A   Overcast
3:53 AM 44.6 °F - 41.0 °F 87% 30.20 in 8.0 mi Calm Calm - N/A   Overcast
4:15 AM 42.8 °F 39.3 °F 39.2 °F 87% 30.19 in 2.0 mi ESE 5.8 mph - N/A   Mostly Cloudy
4:23 AM 42.8 °F 41.1 °F 39.2 °F 87% 30.19 in 1.0 mi ESE 3.5 mph - N/A   Mostly Cloudy
4:31 AM 42.8 °F 38.0 °F 39.2 °F 87% 30.18 in 0.5 mi ESE 8.1 mph - N/A Fog Fog
4:39 AM 42.8 °F 40.1 °F 39.2 °F 87% 30.18 in 0.5 mi Variable 4.6 mph - N/A Fog Fog
4:42 AM 42.8 °F 40.1 °F 39.2 °F 87% 30.18 in 1.0 mi SE 4.6 mph - N/A   Mist
4:46 AM 42.8 °F 41.1 °F 39.2 °F 87% 30.18 in 4.0 mi Variable 3.5 mph - N/A   Mostly Cloudy
4:53 AM 42.1 °F - 39.9 °F 92% 30.19 in 10.0 mi Calm Calm - N/A   Scattered Clouds
5:53 AM 41.0 °F 39.0 °F 39.0 °F 93% 30.18 in 10.0 mi SSW 3.5 mph - N/A   Mostly Cloudy
6:53 AM 42.1 °F 39.2 °F 39.0 °F 89% 30.17 in 10.0 mi ESE 4.6 mph - N/A   Mostly Cloudy
7:53 AM 43.0 °F 38.2 °F 39.9 °F 89% 30.16 in 10.0 mi SSE 8.1 mph - N/A   Overcast
8:53 AM 43.0 °F 37.7 °F 39.9 °F 89% 30.14 in 10.0 mi SSE 9.2 mph - N/A   Overcast
9:35 AM 44.6 °F 38.4 °F 39.2 °F 81% 30.10 in 10.0 mi SSE 12.7 mph 17.3 mph N/A   Mostly Cloudy
9:53 AM 45.0 °F 39.3 °F 39.9 °F 82% 30.11 in 10.0 mi SSE 11.5 mph - N/A   Mostly Cloudy
10:53 AM 46.0 °F 41.9 °F 41.0 °F 83% 30.09 in 10.0 mi South 8.1 mph - N/A   Overcast
11:50 AM 46.4 °F 41.1 °F 42.8 °F 87% 30.06 in 2.0 mi SSE 11.5 mph - 0.01 in Rain Light Rain
11:53 AM 46.0 °F 40.2 °F 42.1 °F 86% 30.07 in 2.5 mi SSE 12.7 mph - 0.01 in Rain Light Rain
12:21 PM 46.4 °F 41.1 °F 42.8 °F 87% 30.03 in 7.0 mi SSE 11.5 mph - 0.01 in Rain Light Rain
12:53 PM 46.9 °F - 42.1 °F 83% 30.00 in 10.0 mi SSE 9.2 mph - 0.02 in Rain Light Rain
1:31 PM 48.2 °F - 42.8 °F 82% 29.95 in 10.0 mi Variable 6.9 mph - 0.00 in   Overcast
1:53 PM 48.9 °F - 42.1 °F 77% 29.94 in 10.0 mi SSE 8.1 mph - 0.00 in   Mostly Cloudy
2:53 PM 48.0 °F - 43.0 °F 83% 29.91 in 5.0 mi SSE 8.1 mph - 0.06 in Rain Rain
3:53 PM 46.9 °F - 43.0 °F 86% 29.87 in 7.0 mi SE 8.1 mph - 0.16 in Rain Light Rain
4:53 PM 46.9 °F - 43.0 °F 86% 29.84 in 7.0 mi SE 10.4 mph 21.9 mph 0.08 in Rain Light Rain
5:49 PM 46.4 °F 39.2 °F 41.0 °F 81% 29.83 in 6.0 mi SSE 18.4 mph 32.2 mph 0.05 in Rain Light Rain
5:53 PM 45.0 °F 38.2 °F 41.0 °F 86% 29.83 in 6.0 mi South 15.0 mph 32.2 mph 0.06 in Rain Light Rain
5:56 PM 44.6 °F 36.9 °F 41.0 °F 87% 29.82 in 7.0 mi South 18.4 mph 23.0 mph 0.00 in Rain Light Rain
6:53 PM 43.0 °F 34.0 °F 39.0 °F 86% 29.88 in 10.0 mi South 21.9 mph 31.1 mph 0.01 in   Overcast
7:00 PM 42.8 °F 34.3 °F 39.2 °F 87% 29.87 in 10.0 mi South 19.6 mph 31.1 mph N/A   Overcast
7:53 PM 43.0 °F 34.5 °F 37.9 °F 82% 29.89 in 10.0 mi South 19.6 mph 28.8 mph N/A   Mostly Cloudy
8:24 PM 42.8 °F 34.5 °F 37.4 °F 81% 29.88 in 10.0 mi SSE 18.4 mph 26.5 mph N/A   Mostly Cloudy
8:31 PM 42.8 °F 34.0 °F 37.4 °F 81% 29.88 in 10.0 mi SSE 20.7 mph 32.2 mph N/A   Mostly Cloudy
8:53 PM 42.1 °F 33.3 °F 37.0 °F 82% 29.89 in 10.0 mi SSE 19.6 mph 28.8 mph N/A   Mostly Cloudy
9:15 PM 41.0 °F 31.9 °F 37.4 °F 87% 29.88 in 10.0 mi SSE 19.6 mph - N/A   Partly Cloudy
9:42 PM 42.8 °F 33.8 °F 37.4 °F 81% 29.88 in 10.0 mi South 21.9 mph 29.9 mph N/A   Mostly Cloudy
9:53 PM 42.1 °F 33.3 °F 37.0 °F 82% 29.88 in 10.0 mi South 19.6 mph 29.9 mph N/A   Scattered Clouds
10:53 PM 42.1 °F 32.8 °F 37.0 °F 82% 29.88 in 10.0 mi South 21.9 mph 33.4 mph N/A   Mostly Cloudy
11:39 PM 42.8 °F 33.5 °F 37.4 °F 81% 29.87 in 10.0 mi South 23.0 mph 33.4 mph N/A   Overcast
11:53 PM 42.1 °F 33.3 °F 37.0 °F 82% 29.88 in 10.0 mi South 19.6 mph 31.1 mph 0.00 in   Overcast
11:55 PM 42.8 °F 33.8 °F 37.4 °F 81% 29.87 in 10.0 mi South 21.9 mph 31.1 mph N/A   Overcast